Change the Weather History Date:

Saturday, February 22, 2014

  Actual Average Record
Temperature  
Mean Temperature 27 °F 28 °F  
Max Temperature 29 °F 35 °F 55 °F (1930)
Min Temperature 24 °F 22 °F -16 °F (1936)
Degree Days  
Heating Degree Days 38 37  
Month to date heating degree days 989 847  
Since 1 July heating degree days 4832 4519  
Cooling Degree Days 0 0  
Month to date cooling degree days 0 0  
Year to date cooling degree days 0 0  
Moisture  
Dew Point 14 °F    
Average Humidity 59    
Maximum Humidity 63    
Minimum Humidity 55    
Precipitation  
Precipitation 0.00 in 0.08 in 2.12 in (1922)
Month to date precipitation 1.74 1.39  
Year to date precipitation 5.06 3.42  
Snow  
Snow 0.00 in 0.60 in 4.80 in (2013)
Month to date snowfall 25.2 16.0  
Since 1 July snowfall 121.7 79.1  
Snow Depth 15.00 in    
Sea Level Pressure  
Sea Level Pressure 29.91 in    
Wind  
Wind Speed 14 mph (WSW)    
Max Wind Speed 21 mph    
Max Gust Speed 29 mph    
Visibility 10 miles    
Events      
T = Trace of Precipitation, MM = Missing Value Source: NWS Daily Summary

Daily Weather History Graph

Daily Weather History Graph

Search for Another Location

Airport or City:

Trip Planner

Search our weather history database for the weather conditions in past years. The results will help you decide how hot, cold, wet, or windy it might be!

Date:

Astronomy

Feb. 22, 2014 Rise Set
Actual Time 7:32 AM EST 6:25 PM EST
Civil Twilight 7:03 AM EST 6:54 PM EST
Nautical Twilight 6:30 AM EST 7:27 PM EST
Astronomical Twilight 5:57 AM EST 8:00 PM EST
Moon 1:30 AM EST (2/22) 11:31 AM EST (2/22)
Length of Visible Light 11h 50m
Length of Day
10h 52m
Waning Gibbous, 50% of the Moon is Illuminated
Feb 22
Waning Gibbous
Feb 22
Last Quarter
Mar 1
New
Mar 8
First Quarter
Mar 16
Full

Hourly Weather History & Observations

Time (EST) Temp. Windchill Dew Point Humidity Pressure Visibility Wind Dir Wind Speed Gust Speed Precip Events Conditions
12:55 AM 26.1 °F 16.2 °F 14.0 °F 60% 29.77 in 10.0 mi WSW 10.4 mph 19.6 mph N/A   Clear
1:55 AM 25.0 °F 13.6 °F 14.0 °F 63% 29.77 in 10.0 mi WSW 12.7 mph - N/A   Clear
2:55 AM 24.1 °F 13.7 °F 12.9 °F 62% 29.77 in 10.0 mi WSW 10.4 mph - N/A   Clear
3:55 AM 24.1 °F 12.0 °F 12.0 °F 60% 29.78 in 10.0 mi WSW 13.8 mph - N/A   Clear
4:55 AM 24.1 °F 11.0 °F 12.0 °F 60% 29.80 in 10.0 mi West 16.1 mph 23.0 mph N/A   Clear
5:55 AM 24.1 °F 11.5 °F 12.0 °F 60% 29.83 in 10.0 mi WSW 15.0 mph - N/A   Clear
6:55 AM 24.1 °F 11.5 °F 12.0 °F 60% 29.86 in 10.0 mi WSW 15.0 mph 24.2 mph N/A   Clear
7:55 AM 24.1 °F 11.5 °F 12.0 °F 60% 29.88 in 10.0 mi WSW 15.0 mph 26.5 mph N/A   Clear
8:55 AM 25.0 °F 11.7 °F 12.9 °F 60% 29.91 in 10.0 mi West 17.3 mph 24.2 mph N/A   Partly Cloudy
9:55 AM 27.0 °F 13.9 °F 14.0 °F 58% 29.91 in 10.0 mi WSW 18.4 mph 25.3 mph N/A   Scattered Clouds
10:55 AM 26.1 °F 14.0 °F 14.0 °F 60% 29.94 in 10.0 mi WSW 15.0 mph 25.3 mph N/A   Scattered Clouds
11:55 AM 27.0 °F 13.5 °F 14.0 °F 58% 29.97 in 10.0 mi WSW 19.6 mph 26.5 mph N/A   Partly Cloudy
12:55 PM 27.0 °F 14.3 °F 15.1 °F 61% 29.97 in 10.0 mi WSW 17.3 mph - N/A   Scattered Clouds
1:55 PM 27.0 °F 14.3 °F 16.0 °F 63% 29.96 in 10.0 mi SW 17.3 mph 23.0 mph N/A   Scattered Clouds
2:55 PM 28.0 °F 15.3 °F 15.1 °F 58% 29.96 in 10.0 mi SW 18.4 mph 25.3 mph N/A   Mostly Cloudy
3:55 PM 28.9 °F 16.9 °F 15.1 °F 56% 29.95 in 10.0 mi SW 17.3 mph 23.0 mph N/A   Mostly Cloudy
4:55 PM 28.9 °F 17.7 °F 16.0 °F 58% 29.96 in 10.0 mi SW 15.0 mph - N/A   Scattered Clouds
5:55 PM 28.9 °F 20.4 °F 16.0 °F 58% 29.95 in 10.0 mi WSW 9.2 mph - N/A   Scattered Clouds
6:55 PM 27.0 °F 17.3 °F 16.0 °F 63% 29.96 in 10.0 mi WSW 10.4 mph - N/A   Scattered Clouds
7:55 PM 27.0 °F 18.7 °F 15.1 °F 61% 29.98 in 10.0 mi West 8.1 mph - N/A   Partly Cloudy
8:55 PM 28.0 °F 18.1 °F 15.1 °F 58% 29.99 in 10.0 mi WSW 11.5 mph - N/A   Mostly Cloudy
9:55 PM 26.1 °F 18.4 °F 14.0 °F 60% 30.01 in 10.0 mi West 6.9 mph - N/A   Scattered Clouds
10:55 PM 26.1 °F 15.6 °F 12.9 °F 58% 30.02 in 10.0 mi West 11.5 mph - N/A   Partly Cloudy
11:55 PM 26.1 °F 16.8 °F 12.9 °F 58% 30.03 in 10.0 mi West 9.2 mph - N/A   Clear